Meath Environmental Platform

Observations for Trim Patrick St

Time AQI Temp °C Hum % Pres Pa CO μg/m³ H₂S μg/m³ NO μg/m³ NO₂ μg/m³ O₃ μg/m³ SO₂ μg/m³ PM1 μg/m³ PM2.5 μg/m³ PM10 μg/m³
Thursday 27 August 2026
06:10 2 17.3 87 38,345 0.25 0 1.24 23.21 30.31 0 26.86 34.87 36.14
06:06 2 17.3 87 38,310 0.24 0.42 0.83 17.99 32.15 0 24.29 33.48 37.37
06:05 2 17.3 87 38,288 0.25 0.23 0.97 15.19 31.97 0 25.14 34.23 35.61
06:02 2 17.3 88 38,288 0.24 0 1.13 16.53 27.21 0 24.29 32.03 33.33
06:01 2 17.3 88 38,288 0.24 0 1.28 12.82 32.03 0 22.57 30.69 30.86
06:00 2 17.2 88 38,288 0.25 0 1.21 13.07 29.07 0 26 33.47 36.06
05:59 2 17.2 87 38,288 0.25 0 1.18 18.12 41.87 0 24.29 32.16 35.38
05:58 2 17.2 87 38,288 0.25 0 1.25 15.66 34.42 0 24.29 32.83 33.62
05:53 2 17.2 87 38,288 0.25 0.03 1.69 21.39 39.07 0 24.29 33.61 33.83
05:52 2 17.1 87 38,288 0.25 0 1.5 16.71 36.44 0 26 35.55 38.05
05:51 2 17.1 88 38,288 0.24 0.16 1.46 20.31 40.12 0 25.14 33.45 34.11
05:50 2 17.1 87 38,288 0.24 0 1.36 16.41 32.76 0 24.29 32.12 33.54
05:49 2 17.1 87 38,288 0.25 0.84 1.23 22.29 46.88 0 25.14 34.25 35.01
05:48 2 17.1 87 38,288 0.25 0 1.31 17.62 27.62 0 25.14 32.86 33.69
05:47 2 17.1 87 38,288 0.27 1.44 1.36 22.52 51.82 0 26.86 34.26 36.33
05:46 2 17.1 86 38,288 0.24 1.2 1.31 20.11 40.74 0 25.14 33.67 34.63
05:45 2 17 86 38,287 0.24 0.58 1.32 19.99 45.09 0 25.14 32.97 34.59
05:44 2 17 86 38,287 0.25 0.71 1.29 20.81 40.98 0 23.43 32.34 32.79
05:43 2 17 87 38,287 0.24 0.58 1.08 21.27 38.52 0 24.29 32.83 33.62
05:42 2 17 87 38,286 0.25 0.84 1.02 23.16 42.62 0 23.43 31.53 31.87